SCP
0 0 0 0 0 0 0 0 0 0 0 0 0 0 0 0 0 0 0 0 0 0 0 0 0 0 0 0 0 0 0 0 0 0 0 0 0 0 0 0 0 0 0 0
0 0 0 0 0 0 0 0 0 0 0 0 0 0 0 0 0 0 0 0 0 0 0 0 0 0 0 0 0 0 0 0 0 0 0 0 0 0 0 0 0 0 0 0
0 0 0 0 0 0 0 0 0 0 0 0 0 0 0 0 0 0 0 0 0 0 0 0 0 0 0 0 0 0 0 0 0 0 0 0 0 0 0 0 0 0 0 0
0 0 0 0 0 0 0 0 0 0 0 0 0 0 0 0 0 0 0 0 0 0 0 0 0 0 0 0 0 0 0 0 0 0 0 0 0 0 0 0 0 0 0 0
0 0 0 0 0 0 0 0 0 0 0 0 0 0 0 0 0 0 0 0 0 0 0 0 0 0 0 0 0 0 0 0 0 0 0 0 0 0 0 0 0 0 0 0
0 0 0 0 0 0 0 0 0 0 0 0 0 0 0 0 0 0 0 0 0 0 0 0 0 0 0 0 0 0 0 0 0 0 0 0 0 0 0 0 0 0 0 0
0 0 0 0 0 0 0 0 0 0 0 0 0 0 0 0 0 0 0 0 0 0 0 0 0 0 0 0 0 0 0 0 0 0 0 0 0 0 0 0 0 0 0 0
0 0 0 0 0 0 0 0 0 0 0 0 0 0 0 0 0 0 0 0 0 0 0 0 0 0 0 0 0 0 0 0 0 0 0 0 0 0 0 0 0 0 0 0
0 0 0 0 0 0 0 0 0 0 0 0 0 0 0 0 0 0 0 0 0 0 0 0 0 0 0 0 0 0 0 0 0 0 0 0 0 0 0 0 0 0 0 0
0 0 0 0 0 0 0 0 0 0 0 0 0 0 0 0 0 0 0 0 0 0 0 0 0 0 0 0 0 0 0 0 0 0 0 0 0 0 0 0 0 0 0 0
0 0 0 0 0 0 0 0 0 0 0 0 0 0 0 0 0 0 0 0 0 0 0 0 0 0 0 0 0 0 0 0 0 0 0 0 0 0 0 0 0 0 0 0
0 0 0 0 0 0 0 0 0 0 0 0 0 0 0 0 0 0 0 0 0 0 0 0 0 0 0 0 0 0 0 0 0 0 0 0 0 0 0 0 0 0 0 0
0 0 0 0 0 0 0 0 0 0 0 0 0 0 0 0 0 0 0 0 0 0 0 0 0 0 0 0 0 0 0 0 0 0 0 0 0 0 0 0 0 0 0 0
0 0 0 0 0 0 0 0 0 0 0 0 0 0 0 0 0 0 0 0 0 0 0 0 0 0 0 0 0 0 0 0 0 0 0 0 0 0 0 0 0 0 0 0
0 0 0 0 0 0 0 0 0 0 0 0 0 0 0 0 0 0 0 0 0 0 0 0 0 0 0 0 0 0 0 0 0 0 0 0 0 0 0 0 0 0 0 0
0 0 0 0 0 0 0 0 0 0 0 0 0 0 0 0 0 0 0 0 0 0 0 0 0 0 0 0 0 0 0 0 0 0 0 0 0 0 0 0 0 0 0 0
0 0 0 0 0 0 0 0 0 0 0 0 0 0 0 0 0 0 0 0 0 0 0 0 0 0 0 0 0 0 0 0 0 0 0 0 0 0 0 0 0 0 0 0
0 0 0 0 0 0 0 0 0 0 0 0 0 0 0 0 0 0 0 0 0 0 0 0 0 0 0 0 0 0 0 0 0 0 0 0 0 0 0 0 0 0 0 0
0 0 0 0 0 0 0 0 0 0 0 0 0 0 0 0 0 0 0 0 0 0 0 0 0 0 0 0 0 0 0 0 0 0 0 0 0 0 0 0 0 0 0 0
0 0 0 0 0 0 0 0 0 0 0 0 0 0 0 0 0 0 0 0 0 0 0 0 0 0 0 0 0 0 0 0 0 0 0 0 0 0 0 0 0 0 0 0
0 0 0 0 0 0 0 0 0 0 0 0 0 0 0 0 0 0 0 0 0 0 0 0 0 0 0 0 0 0 0 0 0 0 0 0 0 0 0 0 0 0 0 0
0 0 0 0 0 0 0 0 0 0 0 0 0 0 0 0 0 0 0 0 0 0 0 0 0 0 0 0 0 0 0 0 0 0 0 0 0 0 0 0 0 0 0 0
0 0 0 0 0 0 0 0 0 0 0 0 0 0 0 0 0 0 0 0 0 0 0 0 0 0 0 0 0 0 0 0 0 0 0 0 0 0 0 0 0 0 0 0
0 0 0 0 0 0 0 0 0 0 0 0 0 0 0 0 0 0 0 0 0 0 0 0 0 0 0 0 0 0 0 0 0 0 0 0 0 0 0 0 0 0 0 0
0 0 0 0 0 0 0 0 0 0 0 0 0 0 0 0 0 0 0 0 0 0 0 0 0 0 0 0 0 0 0 0 0 0 0 0 0 0 0 0 0 0 0 0
0 0 0 0 0 0 0 0 0 0 0 0 0 0 0 0 0 0 0 0 0 0 0 0 0 0 0 0 0 0 0 0 0 0 0 0 0 0 0 0 0 0 0 0
0 0 0 0 0 0 0 0 0 0 0 0 0 0 0 0 0 0 0 0 0 0 0 0 0 0 0 0 0 0 0 0 0 0 0 0 0 0 0 0 0 0 0 0
Wind_Speed_500mb
15 11 8 6 19 25 16 7 4 12 19 6 10 7 8 8 5 7 5 8 9 6 5 6 5 6 7 9 6 5 7 4 6 8 12 19 19 8 8 6 11 3 8 12
19 15 12 10 18 30 16 8 7 9 12 6 7 8 9 8 4 7 4 6 7 5 5 1 4 7 3 8 6 5 4 4 3 9 10 4 7 8 4 3 2 0 10 15
22 19 17 15 18 33 21 9 5 6 8 15 19 16 9 9 9 7 10 9 5 6 5 8 7 6 3 5 7 9 2 4 7 7 7 4 1 3 2 6 6 18 18 46
29 25 23 21 20 33 26 8 5 7 5 7 20 12 8 11 7 6 5 7 6 5 6 4 6 4 7 5 6 4 4 3 4 8 7 1 3 3 4 4 13 9 30 40
32 28 27 27 24 38 28 11 14 16 12 17 14 4 6 10 10 5 4 10 6 4 7 6 4 6 2 3 5 3 5 4 3 5 5 4 4 4 7 8 16 22 29 34
35 32 31 31 29 42 19 18 24 15 5 5 4 5 12 14 22 14 11 24 13 18 11 18 20 19 16 10 3 4 3 3 2 4 1 4 6 2 6 17 21 20 25 38
38 35 33 34 37 45 28 29 32 11 6 3 6 11 14 26 6 14 8 10 6 17 40 36 29 29 26 26 24 10 4 5 3 2 7 5 9 1 12 21 25 9 19 43
38 36 34 35 41 44 47 22 27 13 9 21 24 27 34 35 32 20 14 11 19 41 9 5 5 4 4 11 16 19 11 4 4 3 6 4 7 7 8 12 15 4 28 51
37 35 32 33 41 47 52 31 29 12 42 7 25 25 24 13 11 11 11 28 35 7 4 3 4 4 2 1 5 4 7 9 2 2 5 4 8 5 5 6 4 20 40 48
38 33 28 26 37 51 50 47 36 21 27 25 30 9 13 17 15 13 16 17 9 3 3 3 0 1 3 3 3 3 1 3 2 1 4 6 5 0 3 7 13 39 38 43
40 34 29 27 26 45 48 47 40 29 28 33 18 22 16 20 13 9 24 15 7 4 4 3 4 4 3 5 2 4 4 5 4 3 5 4 12 5 5 9 25 31 34 40
44 36 32 30 33 38 44 40 40 30 40 35 34 30 25 19 16 23 37 3 10 13 7 3 5 5 5 2 3 5 4 3 1 10 6 12 8 4 8 8 22 26 33 42
48 40 34 35 32 32 38 49 49 53 75 43 27 28 27 23 22 28 11 12 14 13 12 11 4 4 5 5 7 5 8 7 4 3 8 7 3 4 8 15 18 23 29 37
53 47 42 40 34 32 30 51 55 46 36 20 10 22 22 21 17 12 8 11 21 26 16 8 5 2 7 1 4 6 2 21 10 7 8 3 10 4 6 12 17 22 29 36
57 52 47 40 34 36 49 50 46 36 11 20 22 27 19 17 14 12 18 20 21 18 9 6 2 6 7 3 3 9 22 13 9 1 21 8 12 4 8 9 17 26 35 41
61 54 50 48 49 47 43 23 22 16 30 24 11 16 18 21 19 16 17 17 13 10 9 6 4 5 2 5 6 6 27 19 11 12 19 11 6 1 6 10 18 25 28 33
65 58 57 55 52 47 30 18 35 29 24 13 19 10 14 21 18 15 14 11 9 7 8 4 4 5 6 4 7 12 29 28 23 21 17 8 3 4 2 11 18 24 28 30
71 66 64 61 51 37 25 41 41 27 13 13 16 6 10 19 7 6 8 6 7 7 6 4 4 4 5 9 19 18 33 32 27 23 13 8 7 7 5 12 18 26 31 39
78 70 62 50 41 27 35 37 28 19 9 14 12 11 8 21 9 9 6 5 5 2 2 3 3 6 11 10 27 38 46 37 33 28 15 10 13 7 4 10 18 25 32 39
82 73 36 14 30 50 46 13 7 6 8 9 14 17 8 13 8 6 5 5 4 2 2 1 6 8 21 10 22 36 47 32 34 28 18 17 12 7 3 10 19 26 33 39
84 30 18 55 65 33 9 8 7 4 9 8 12 12 21 15 6 9 5 6 2 2 3 4 5 8 9 29 34 43 46 34 28 19 17 19 13 7 2 9 16 23 31 38
60 47 59 54 15 10 12 4 3 3 9 16 16 16 16 16 11 11 7 5 2 3 7 4 7 7 14 39 48 55 45 35 26 20 21 17 10 5 3 11 16 22 29 36
79 37 22 16 9 9 15 16 6 7 28 27 28 19 14 13 8 13 7 6 4 8 5 8 8 10 27 46 61 55 44 33 27 26 20 14 8 1 7 12 16 21 28 35
25 20 13 15 10 13 12 15 12 20 31 63 54 23 12 11 8 8 8 3 6 4 7 12 9 31 47 56 64 59 48 37 31 26 20 13 7 3 6 11 16 22 28 33
20 19 15 11 15 22 27 47 46 38 71 82 41 23 14 9 10 6 10 5 9 12 10 6 16 43 61 67 67 57 50 41 35 28 20 12 6 3 4 9 14 20 26 33
21 18 14 28 27 16 32 40 52 72 85 53 15 13 8 5 11 11 13 16 16 8 13 19 34 58 72 73 65 55 47 42 35 29 22 14 8 4 5 9 14 18 24 31
24 13 33 47 42 52 63 66 64 93 85 12 17 11 7 20 7 9 11 13 6 19 26 32 47 69 82 73 63 55 48 43 36 28 21 14 10 5 6 9 12 17 23 27
Wind_Direction_500mb
207 203 199 203 189 183 172 154 135 157 151 57 53 91 95 125 125 62 82 82 72 61 54 70 97 88 43 354 330 26 23 349 46 65 95 71 55 50 359 346 342 16 277 294
212 213 207 206 195 185 171 130 106 146 168 135 107 111 88 69 107 37 76 93 41 73 85 85 74 95 67 26 31 19 32 64 251 184 185 177 52 48 33 89 351 83 314 297
215 217 212 210 199 190 187 156 124 67 80 100 131 137 127 116 61 77 66 104 111 126 97 36 127 117 109 55 58 32 302 70 21 344 20 349 34 78 345 345 313 332 280 309
212 215 212 210 201 187 186 170 106 129 108 94 119 99 123 131 127 82 71 88 71 122 116 115 98 109 142 87 17 31 352 96 81 73 68 112 10 199 238 270 322 284 317 315
216 216 213 211 202 190 192 175 143 100 86 115 112 41 138 139 133 360 92 126 100 57 91 45 127 136 197 66 85 64 22 112 151 105 339 254 237 211 286 280 300 303 318 306
215 213 210 211 204 191 193 193 156 136 100 132 154 123 144 149 135 55 70 124 110 77 75 98 91 87 84 86 24 87 33 115 296 93 111 154 203 337 314 303 304 328 325 325
216 213 210 213 207 199 198 196 165 131 127 89 92 124 110 131 74 125 94 68 88 129 119 101 89 83 82 71 51 37 109 85 56 99 182 229 98 152 295 297 306 329 313 326
213 211 210 213 211 205 205 205 183 149 104 122 109 115 117 103 94 81 81 44 120 137 129 103 119 117 152 75 50 44 36 114 93 296 289 351 196 194 304 332 320 19 324 328
209 209 211 213 210 206 207 210 197 156 123 169 134 119 144 128 116 97 72 122 136 120 91 83 35 359 2 134 150 61 56 56 276 134 290 292 87 135 278 274 232 345 338 330
202 202 202 203 205 203 203 202 198 163 103 141 143 135 157 142 115 97 132 162 197 135 101 87 38 150 18 308 269 125 33 14 23 112 274 254 153 278 140 299 343 334 330 329
195 193 191 185 179 192 192 187 184 174 119 138 150 142 135 140 149 140 153 136 177 117 113 167 140 222 137 241 138 219 247 183 149 135 241 274 140 161 291 332 319 328 325 325
190 188 184 178 175 176 187 186 178 171 130 128 124 120 129 132 142 136 157 168 135 157 112 166 126 168 184 268 253 195 232 249 277 223 18 99 145 257 271 286 317 322 322 325
187 182 176 166 168 176 188 185 165 156 116 100 109 104 112 113 125 139 142 169 157 159 134 132 123 180 182 211 225 163 202 186 246 262 155 198 184 230 221 296 310 320 327 326
183 178 171 164 160 168 184 167 156 150 124 108 92 117 117 120 123 123 123 152 145 144 125 101 135 169 200 6 31 257 104 164 191 242 184 150 160 203 298 316 331 333 339 337
182 178 172 168 166 159 165 152 153 152 148 126 127 111 102 117 118 126 120 128 138 131 100 86 113 109 160 123 245 233 190 178 192 122 150 143 164 252 323 343 347 347 347 345
178 173 169 161 159 159 160 117 144 136 120 110 120 123 112 116 122 135 130 131 126 114 105 109 130 163 183 205 246 202 187 178 154 160 151 142 161 280 352 1 351 350 350 349
177 172 168 168 169 169 166 168 156 145 130 114 106 104 150 132 127 114 101 106 111 108 103 102 144 161 190 243 242 173 176 166 157 153 153 148 155 156 14 3 353 352 356 351
175 170 168 169 170 166 135 142 147 145 107 101 110 84 135 161 122 94 113 98 107 71 106 130 183 175 221 248 221 166 164 165 170 171 170 161 166 133 27 2 355 357 360 357
173 169 167 161 160 136 137 139 136 113 102 107 96 136 148 154 115 108 99 117 83 88 120 146 193 184 231 242 184 175 173 172 177 176 178 175 156 140 40 3 355 358 358 359
167 160 145 135 144 143 130 112 103 94 61 76 90 120 116 150 134 102 113 78 87 184 88 135 228 259 252 227 190 180 175 174 176 169 183 177 168 140 52 1 358 356 357 357
159 156 144 142 140 132 97 107 98 115 78 81 109 122 126 138 141 125 102 126 94 216 121 252 248 261 224 188 177 172 172 170 172 185 178 169 164 144 60 353 352 356 358 357
165 161 134 133 141 109 102 29 137 204 164 133 124 127 119 123 126 111 117 110 160 232 144 240 250 232 190 172 169 168 170 172 175 171 169 169 168 165 352 356 359 357 357 359
157 144 158 150 150 103 157 180 216 188 168 159 150 132 121 119 120 92 121 142 153 127 223 244 242 167 173 168 166 167 171 172 169 165 169 175 172 221 341 352 354 357 358 359
166 149 136 191 168 201 187 164 152 156 158 149 139 113 117 122 101 130 121 107 145 204 244 238 203 187 172 168 169 169 170 171 168 168 171 174 181 259 334 352 353 358 356 1
169 156 187 173 153 151 162 152 142 145 153 145 120 98 114 116 112 110 118 128 227 223 234 219 185 175 170 169 171 172 171 168 167 169 174 183 199 245 329 350 357 356 352 358
165 175 110 133 119 129 149 155 138 151 152 142 127 120 127 130 134 151 199 166 218 218 209 197 177 173 172 172 174 173 172 169 168 174 177 185 204 263 322 349 358 352 355 359
173 157 169 158 159 161 166 168 164 159 152 144 140 134 145 123 142 198 192 212 210 191 188 187 183 177 174 173 172 171 172 171 173 177 180 187 210 251 320 340 345 350 358 357
Wind_Speed_850mb
15 11 8 6 19 25 16 7 4 12 19 6 10 7 8 8 5 7 5 8 9 6 5 6 5 6 7 9 6 5 7 4 6 8 12 19 19 8 8 6 11 3 8 12
19 15 12 10 18 30 16 8 7 9 12 6 7 8 9 8 4 7 4 6 7 5 5 1 4 7 3 8 6 5 4 4 3 9 10 4 7 8 4 3 2 0 10 15
22 19 17 15 18 33 21 9 5 6 8 15 19 16 9 9 9 7 10 9 5 6 5 8 7 6 3 5 7 9 2 4 7 7 7 4 1 3 2 6 6 18 18 46
29 25 23 21 20 33 26 8 5 7 5 7 20 12 8 11 7 6 5 7 6 5 6 4 6 4 7 5 6 4 4 3 4 8 7 1 3 3 4 4 13 9 30 40
32 28 27 27 24 38 28 11 14 16 12 17 14 4 6 10 10 5 4 10 6 4 7 6 4 6 2 3 5 3 5 4 3 5 5 4 4 4 7 8 16 22 29 34
35 32 31 31 29 42 19 18 24 15 5 5 4 5 12 14 22 14 11 24 13 18 11 18 20 19 16 10 3 4 3 3 2 4 1 4 6 2 6 17 21 20 25 38
38 35 33 34 37 45 28 29 32 11 6 3 6 11 14 26 6 14 8 10 6 17 40 36 29 29 26 26 24 10 4 5 3 2 7 5 9 1 12 21 25 9 19 43
38 36 34 35 41 44 47 22 27 13 9 21 24 27 34 35 32 20 14 11 19 41 9 5 5 4 4 11 16 19 11 4 4 3 6 4 7 7 8 12 15 4 28 51
37 35 32 33 41 47 52 31 29 12 42 7 25 25 24 13 11 11 11 28 35 7 4 3 4 4 2 1 5 4 7 9 2 2 5 4 8 5 5 6 4 20 40 48
38 33 28 26 37 51 50 47 36 21 27 25 30 9 13 17 15 13 16 17 9 3 3 3 0 1 3 3 3 3 1 3 2 1 4 6 5 0 3 7 13 39 38 43
40 34 29 27 26 45 48 47 40 29 28 33 18 22 16 20 13 9 24 15 7 4 4 3 4 4 3 5 2 4 4 5 4 3 5 4 12 5 5 9 25 31 34 40
44 36 32 30 33 38 44 40 40 30 40 35 34 30 25 19 16 23 37 3 10 13 7 3 5 5 5 2 3 5 4 3 1 10 6 12 8 4 8 8 22 26 33 42
48 40 34 35 32 32 38 49 49 53 75 43 27 28 27 23 22 28 11 12 14 13 12 11 4 4 5 5 7 5 8 7 4 3 8 7 3 4 8 15 18 23 29 37
53 47 42 40 34 32 30 51 55 46 36 20 10 22 22 21 17 12 8 11 21 26 16 8 5 2 7 1 4 6 2 21 10 7 8 3 10 4 6 12 17 22 29 36
57 52 47 40 34 36 49 50 46 36 11 20 22 27 19 17 14 12 18 20 21 18 9 6 2 6 7 3 3 9 22 13 9 1 21 8 12 4 8 9 17 26 35 41
61 54 50 48 49 47 43 23 22 16 30 24 11 16 18 21 19 16 17 17 13 10 9 6 4 5 2 5 6 6 27 19 11 12 19 11 6 1 6 10 18 25 28 33
65 58 57 55 52 47 30 18 35 29 24 13 19 10 14 21 18 15 14 11 9 7 8 4 4 5 6 4 7 12 29 28 23 21 17 8 3 4 2 11 18 24 28 30
71 66 64 61 51 37 25 41 41 27 13 13 16 6 10 19 7 6 8 6 7 7 6 4 4 4 5 9 19 18 33 32 27 23 13 8 7 7 5 12 18 26 31 39
78 70 62 50 41 27 35 37 28 19 9 14 12 11 8 21 9 9 6 5 5 2 2 3 3 6 11 10 27 38 46 37 33 28 15 10 13 7 4 10 18 25 32 39
82 73 36 14 30 50 46 13 7 6 8 9 14 17 8 13 8 6 5 5 4 2 2 1 6 8 21 10 22 36 47 32 34 28 18 17 12 7 3 10 19 26 33 39
84 30 18 55 65 33 9 8 7 4 9 8 12 12 21 15 6 9 5 6 2 2 3 4 5 8 9 29 34 43 46 34 28 19 17 19 13 7 2 9 16 23 31 38
60 47 59 54 15 10 12 4 3 3 9 16 16 16 16 16 11 11 7 5 2 3 7 4 7 7 14 39 48 55 45 35 26 20 21 17 10 5 3 11 16 22 29 36
79 37 22 16 9 9 15 16 6 7 28 27 28 19 14 13 8 13 7 6 4 8 5 8 8 10 27 46 61 55 44 33 27 26 20 14 8 1 7 12 16 21 28 35
25 20 13 15 10 13 12 15 12 20 31 63 54 23 12 11 8 8 8 3 6 4 7 12 9 31 47 56 64 59 48 37 31 26 20 13 7 3 6 11 16 22 28 33
20 19 15 11 15 22 27 47 46 38 71 82 41 23 14 9 10 6 10 5 9 12 10 6 16 43 61 67 67 57 50 41 35 28 20 12 6 3 4 9 14 20 26 33
21 18 14 28 27 16 32 40 52 72 85 53 15 13 8 5 11 11 13 16 16 8 13 19 34 58 72 73 65 55 47 42 35 29 22 14 8 4 5 9 14 18 24 31
24 13 33 47 42 52 63 66 64 93 85 12 17 11 7 20 7 9 11 13 6 19 26 32 47 69 82 73 63 55 48 43 36 28 21 14 10 5 6 9 12 17 23 27
Wind_Direction_850mb
207 203 199 203 189 183 172 154 135 157 151 57 53 91 95 125 125 62 82 82 72 61 54 70 97 88 43 354 330 26 23 349 46 65 95 71 55 50 359 346 342 16 277 294
212 213 207 206 195 185 171 130 106 146 168 135 107 111 88 69 107 37 76 93 41 73 85 85 74 95 67 26 31 19 32 64 251 184 185 177 52 48 33 89 351 83 314 297
215 217 212 210 199 190 187 156 124 67 80 100 131 137 127 116 61 77 66 104 111 126 97 36 127 117 109 55 58 32 302 70 21 344 20 349 34 78 345 345 313 332 280 309
212 215 212 210 201 187 186 170 106 129 108 94 119 99 123 131 127 82 71 88 71 122 116 115 98 109 142 87 17 31 352 96 81 73 68 112 10 199 238 270 322 284 317 315
216 216 213 211 202 190 192 175 143 100 86 115 112 41 138 139 133 360 92 126 100 57 91 45 127 136 197 66 85 64 22 112 151 105 339 254 237 211 286 280 300 303 318 306
215 213 210 211 204 191 193 193 156 136 100 132 154 123 144 149 135 55 70 124 110 77 75 98 91 87 84 86 24 87 33 115 296 93 111 154 203 337 314 303 304 328 325 325
216 213 210 213 207 199 198 196 165 131 127 89 92 124 110 131 74 125 94 68 88 129 119 101 89 83 82 71 51 37 109 85 56 99 182 229 98 152 295 297 306 329 313 326
213 211 210 213 211 205 205 205 183 149 104 122 109 115 117 103 94 81 81 44 120 137 129 103 119 117 152 75 50 44 36 114 93 296 289 351 196 194 304 332 320 19 324 328
209 209 211 213 210 206 207 210 197 156 123 169 134 119 144 128 116 97 72 122 136 120 91 83 35 359 2 134 150 61 56 56 276 134 290 292 87 135 278 274 232 345 338 330
202 202 202 203 205 203 203 202 198 163 103 141 143 135 157 142 115 97 132 162 197 135 101 87 38 150 18 308 269 125 33 14 23 112 274 254 153 278 140 299 343 334 330 329
195 193 191 185 179 192 192 187 184 174 119 138 150 142 135 140 149 140 153 136 177 117 113 167 140 222 137 241 138 219 247 183 149 135 241 274 140 161 291 332 319 328 325 325
190 188 184 178 175 176 187 186 178 171 130 128 124 120 129 132 142 136 157 168 135 157 112 166 126 168 184 268 253 195 232 249 277 223 18 99 145 257 271 286 317 322 322 325
187 182 176 166 168 176 188 185 165 156 116 100 109 104 112 113 125 139 142 169 157 159 134 132 123 180 182 211 225 163 202 186 246 262 155 198 184 230 221 296 310 320 327 326
183 178 171 164 160 168 184 167 156 150 124 108 92 117 117 120 123 123 123 152 145 144 125 101 135 169 200 6 31 257 104 164 191 242 184 150 160 203 298 316 331 333 339 337
182 178 172 168 166 159 165 152 153 152 148 126 127 111 102 117 118 126 120 128 138 131 100 86 113 109 160 123 245 233 190 178 192 122 150 143 164 252 323 343 347 347 347 345
178 173 169 161 159 159 160 117 144 136 120 110 120 123 112 116 122 135 130 131 126 114 105 109 130 163 183 205 246 202 187 178 154 160 151 142 161 280 352 1 351 350 350 349
177 172 168 168 169 169 166 168 156 145 130 114 106 104 150 132 127 114 101 106 111 108 103 102 144 161 190 243 242 173 176 166 157 153 153 148 155 156 14 3 353 352 356 351
175 170 168 169 170 166 135 142 147 145 107 101 110 84 135 161 122 94 113 98 107 71 106 130 183 175 221 248 221 166 164 165 170 171 170 161 166 133 27 2 355 357 360 357
173 169 167 161 160 136 137 139 136 113 102 107 96 136 148 154 115 108 99 117 83 88 120 146 193 184 231 242 184 175 173 172 177 176 178 175 156 140 40 3 355 358 358 359
167 160 145 135 144 143 130 112 103 94 61 76 90 120 116 150 134 102 113 78 87 184 88 135 228 259 252 227 190 180 175 174 176 169 183 177 168 140 52 1 358 356 357 357
159 156 144 142 140 132 97 107 98 115 78 81 109 122 126 138 141 125 102 126 94 216 121 252 248 261 224 188 177 172 172 170 172 185 178 169 164 144 60 353 352 356 358 357
165 161 134 133 141 109 102 29 137 204 164 133 124 127 119 123 126 111 117 110 160 232 144 240 250 232 190 172 169 168 170 172 175 171 169 169 168 165 352 356 359 357 357 359
157 144 158 150 150 103 157 180 216 188 168 159 150 132 121 119 120 92 121 142 153 127 223 244 242 167 173 168 166 167 171 172 169 165 169 175 172 221 341 352 354 357 358 359
166 149 136 191 168 201 187 164 152 156 158 149 139 113 117 122 101 130 121 107 145 204 244 238 203 187 172 168 169 169 170 171 168 168 171 174 181 259 334 352 353 358 356 1
169 156 187 173 153 151 162 152 142 145 153 145 120 98 114 116 112 110 118 128 227 223 234 219 185 175 170 169 171 172 171 168 167 169 174 183 199 245 329 350 357 356 352 358
165 175 110 133 119 129 149 155 138 151 152 142 127 120 127 130 134 151 199 166 218 218 209 197 177 173 172 172 174 173 172 169 168 174 177 185 204 263 322 349 358 352 355 359
173 157 169 158 159 161 166 168 164 159 152 144 140 134 145 123 142 198 192 212 210 191 188 187 183 177 174 173 172 171 172 171 173 177 180 187 210 251 320 340 345 350 358 357